This is the latest recevied weather packets stored in our database for station/object KD6VEX-1. If no packets are shown the sender has not sent any weather packets the latest 10 day(s).
| Time | Temp. | Humidity | Pressure | Rain* | Wind** | Luminosity | Snow |
|---|---|---|---|---|---|---|---|
| 1777940081 | 18.33° C | 53% | 1013.9 hPa | 0 mm | - | - | - |
| 1777939781 | 18.33° C | 54% | 1013.9 hPa | 0 mm | - | - | - |
| 1777939481 | 18.33° C | 54% | 1013.9 hPa | 0 mm | - | - | - |
| 1777939181 | 18.33° C | 54% | 1013.9 hPa | 0 mm | - | - | - |
| 1777938881 | 18.33° C | 55% | 1013.9 hPa | 0 mm | - | - | - |
| 1777938581 | 18.33° C | 56% | 1013.9 hPa | 0 mm | - | - | - |
| 1777938281 | 18.33° C | 55% | 1013.9 hPa | 0 mm | - | - | - |
| 1777937981 | 18.33° C | 55% | 1014 hPa | 0 mm | - | - | - |
| 1777937452 | 18.33° C | 56% | 1013.9 hPa | 0 mm | - | - | - |
| 1777937152 | 18.33° C | 56% | 1014 hPa | 0 mm | - | - | - |
| 1777936852 | 18.33° C | 56% | 1014 hPa | 0 mm | - | - | - |
| 1777936552 | 18.33° C | 57% | 1014 hPa | 0 mm | - | - | - |
| 1777936252 | 18.33° C | 59% | 1014.1 hPa | 0 mm | - | - | - |
| 1777935952 | 18.33° C | 58% | 1014.1 hPa | 0 mm | - | - | - |
| 1777935652 | 18.33° C | 58% | 1014.1 hPa | 0 mm | - | - | - |
| 1777935352 | 18.33° C | 58% | 1014.1 hPa | 0 mm | - | - | - |
| 1777935052 | 18.33° C | 57% | 1014.2 hPa | 0 mm | - | - | - |
| 1777934752 | 18.33° C | 59% | 1014.3 hPa | 0 mm | - | - | - |
| 1777934452 | 17.78° C | 65% | 1014.3 hPa | 0 mm | - | - | - |
| 1777934152 | 17.78° C | 62% | 1014.4 hPa | 0 mm | - | - | - |
| 1777933854 | 17.78° C | 63% | 1014.5 hPa | 0 mm | - | - | - |
| 1777933552 | 17.78° C | 64% | 1014.6 hPa | 0 mm | - | - | - |
| 1777933252 | 18.33° C | 66% | 1014.6 hPa | 0 mm | - | - | - |
| 1777932796 | 18.89° C | 63% | 1014.8 hPa | 0 mm | - | - | - |
| 1777932492 | 18.89° C | 53% | 1014.7 hPa | 0 mm | - | - | - |
* Rain latest hour (hover to see other rain measurements)
** Current wind speed in m/s (hover to see current wind gust speed)